Terug naar catalogus

FENGYUN 1C DEB *

LostPO
NORAD 47031·DEBRIS·🇨🇳 China

Gelanceerd May 10, 1999 vanaf Taiyuan Satellite Launch Center

Loading…

Volgende Passages (komende 24 uur)

TLE

VerouderdSource: Space-Track

Epoch: Sep 8, 2021, 02:41 UTC

1 47031U 99025FBH 21251.11242078  .00000514  00000-0  50106-3 0  9991
2 47031  98.7790 206.4056 0208906  38.9207  21.9729 13.74208680466492

Volg FENGYUN 1C DEB * in realtime met AllMySat

Download on the App Store